Wind_Speed
97 97 97 98 98 99 99 99 98 98 98 98 98 97 97 96 96 96 95 95 95 95 95 96 96 97 97 98 99 99 100 101 102 102 103 104 104 105 105 106 106 107 107 108 108 109 109 109 109 109 109 109 109 109 109 109 108 108 108 108 108 108 108 107 107 107 107 106 106 105 103 101 98 96 93 91 89 87 84 82 79 77 75 74 72 71
96 97 97 97 97 97 98 97 97 96 96 95 95 95 95 94 94 94 94 94 94 95 95 96 96 97 98 99 100 101 102 102 103 104 105 106 106 107 107 108 109 109 110 110 111 111 111 111 111 111 111 111 111 111 111 110 110 110 110 109 109 109 109 108 108 108 108 108 107 106 105 104 102 100 97 95 93 91 88 85 83 80 78 76 75 73
96 96 96 96 96 96 96 95 95 94 93 93 93 93 93 93 93 93 93 94 94 95 96 96 97 98 99 100 101 102 103 104 105 106 107 108 109 109 110 111 111 112 112 113 113 113 113 113 113 113 113 113 113 113 113 112 112 112 111 111 110 110 110 109 109 109 109 108 108 108 107 106 105 103 101 99 96 94 92 89 86 83 80 78 77 75
95 95 95 95 95 94 94 93 93 92 92 91 91 91 91 91 92 92 93 94 94 96 97 97 98 99 100 102 103 104 105 106 107 108 109 110 111 112 112 113 114 114 115 115 116 116 116 116 116 115 115 115 115 115 115 114 114 113 113 112 112 111 111 110 110 110 109 109 109 108 108 107 107 105 104 102 100 98 96 93 91 87 84 81 79 78
94 94 93 93 93 93 92 92 91 90 90 90 90 90 90 91 91 92 93 94 95 96 97 98 99 101 102 103 104 105 107 108 109 110 111 112 113 114 115 115 116 117 117 118 118 118 118 118 118 117 117 117 117 116 116 116 115 115 114 114 113 112 112 111 111 110 110 109 109 109 109 108 108 107 106 105 103 101 99 97 94 92 88 84 81 80
92 92 91 91 91 91 90 90 89 89 89 89 89 89 90 90 91 92 93 94 96 97 98 99 101 102 103 105 106 107 108 110 111 112 113 114 115 116 116 117 118 119 119 119 120 120 120 120 119 119 119 119 118 118 117 117 116 116 115 114 114 113 112 112 111 110 110 109 109 109 108 108 108 108 108 107 105 104 102 100 98 96 92 88 85 82
91 90 89 89 89 89 89 88 88 88 88 88 89 89 90 91 91 92 94 95 96 98 99 101 102 103 105 106 108 109 110 111 112 113 114 115 116 117 118 119 119 120 121 121 121 121 121 121 121 120 120 119 119 118 118 117 116 116 115 114 113 112 111 111 110 109 109 108 108 108 107 107 108 108 108 108 107 106 104 102 100 99 96 93 89 85
89 88 88 87 87 87 87 87 87 87 87 87 88 89 90 91 92 93 94 96 97 99 100 102 103 105 106 108 109 111 112 113 114 115 116 117 118 119 119 120 121 121 122 122 122 122 122 121 121 120 120 119 118 118 117 116 115 114 113 112 111 110 109 108 107 107 106 106 106 106 106 106 106 106 107 108 108 107 106 105 103 101 100 97 93 89
86 86 86 86 86 86 86 86 87 87 87 88 88 89 90 91 92 94 95 97 98 100 101 103 105 106 108 109 111 112 113 114 115 116 117 118 119 120 121 121 122 122 122 123 123 122 122 121 120 119 118 117 117 116 115 114 113 112 111 110 108 107 106 105 104 103 103 103 103 103 103 103 103 104 105 106 107 107 107 106 105 103 102 100 97 93
85 84 85 85 85 85 85 86 87 87 87 88 89 89 90 91 93 94 96 98 99 101 102 104 106 108 110 111 112 113 115 116 117 117 118 119 120 121 122 122 122 122 122 122 122 122 121 120 119 117 116 115 114 113 112 111 110 109 108 106 105 104 103 102 101 100 99 99 99 99 100 100 100 101 102 103 104 106 107 107 106 105 104 103 100 97
83 83 83 83 84 84 85 85 86 87 88 88 89 90 91 92 93 95 97 99 100 102 104 105 107 109 111 112 114 115 116 117 118 119 119 120 121 122 122 122 122 122 122 121 121 120 119 117 116 114 113 112 110 109 108 107 106 105 104 103 102 101 100 99 98 97 96 95 95 96 96 97 97 98 99 100 101 103 104 106 106 106 105 104 103 100
82 82 83 83 84 84 85 86 87 87 88 89 90 91 92 93 94 96 98 100 101 103 105 107 108 110 112 113 115 116 117 118 118 119 120 120 121 121 122 122 121 121 120 119 118 117 116 114 113 111 110 109 107 106 105 104 103 102 101 100 99 98 96 96 95 94 93 93 92 92 93 93 94 95 96 96 98 99 101 103 104 105 105 105 104 102
81 82 82 83 84 85 85 86 87 88 88 89 90 92 94 95 96 98 99 101 102 104 106 107 109 111 112 114 115 116 117 118 119 119 119 120 120 120 120 120 120 119 118 117 116 115 113 112 110 109 107 106 105 104 103 102 100 99 98 96 95 94 93 92 92 91 90 90 90 90 90 90 91 92 93 94 95 96 97 100 102 103 104 104 104 104
81 82 83 83 84 85 86 86 87 88 89 90 91 93 95 96 98 99 100 102 103 105 106 108 110 111 113 114 116 117 118 118 118 118 118 118 118 118 118 118 117 116 115 114 113 112 111 109 108 107 105 104 103 102 100 99 97 96 94 93 92 91 90 89 89 88 88 87 87 87 87 88 89 90 91 92 93 93 95 96 98 101 102 103 104 104
81 82 83 84 84 85 86 86 87 88 90 91 93 94 96 97 99 100 102 103 105 106 107 108 110 111 113 114 116 117 117 117 117 117 116 116 116 115 115 115 114 113 112 111 111 110 109 107 106 105 103 102 101 99 98 96 94 93 91 90 89 88 87 86 86 85 85 84 84 85 85 85 86 87 89 90 91 92 92 94 95 97 100 101 103 103
81 82 83 84 85 85 86 87 88 89 91 92 94 95 97 98 100 101 103 104 105 106 107 109 110 111 112 114 115 115 116 116 115 114 114 113 113 112 112 111 111 110 109 109 108 107 106 105 104 102 101 100 98 97 95 93 92 90 89 87 86 85 84 84 83 82 82 82 82 82 82 83 84 85 87 88 89 90 91 92 93 95 97 99 101 102
81 82 83 83 84 85 87 87 89 90 91 93 95 96 98 99 101 102 104 105 106 107 108 108 109 110 111 113 113 114 113 113 112 111 110 109 109 109 108 108 108 107 106 106 105 105 104 102 101 100 98 97 96 94 92 90 89 87 86 85 84 83 82 81 81 80 80 79 79 80 80 81 82 83 85 86 88 89 90 90 91 93 94 96 98 100
81 82 83 83 84 86 87 88 89 91 92 94 95 97 99 100 102 103 104 105 106 107 108 108 109 109 110 111 111 111 111 110 109 108 107 106 105 105 105 105 104 104 103 103 102 101 100 99 98 97 96 94 92 91 89 87 86 84 83 82 81 80 79 79 78 78 77 77 77 77 78 79 80 81 83 85 86 88 89 89 90 91 92 94 96 98
81 82 83 83 85 86 87 89 90 91 93 94 96 98 99 101 102 103 105 105 106 107 107 108 108 109 109 109 109 109 108 107 106 104 103 102 102 102 102 102 101 101 100 99 99 98 97 96 95 94 92 91 89 88 86 84 83 81 80 79 78 77 77 76 76 75 75 75 75 75 76 77 78 79 81 83 84 86 87 88 89 90 91 92 94 96
81 82 83 84 85 86 88 89 91 92 93 95 97 98 100 101 103 104 104 105 106 106 106 107 107 107 107 107 107 106 105 104 103 101 100 99 98 99 99 99 98 97 97 96 96 95 94 93 92 90 89 87 86 84 82 81 79 78 76 75 74 74 73 73 73 73 72 72 73 73 73 74 76 77 79 80 82 84 86 87 88 88 89 91 92 94
81 82 83 84 85 87 88 90 91 92 94 95 97 99 100 101 102 103 104 104 105 105 105 105 105 105 105 105 104 104 103 102 100 99 98 96 96 96 96 96 95 94 94 93 92 91 90 89 88 87 85 84 82 80 79 77 75 74 73 72 71 70 70 70 70 70 70 70 70 70 71 72 73 75 76 78 80 82 84 85 86 87 88 89 91 93
81 83 84 85 86 87 89 90 92 93 94 96 98 99 100 102 102 103 103 104 104 104 104 104 104 104 103 103 102 102 101 100 98 97 96 95 94 94 93 93 92 91 91 90 89 88 87 85 84 83 81 80 78 76 75 73 71 70 69 68 67 67 67 67 67 67 67 67 67 68 68 69 71 72 74 76 77 80 82 83 85 86 87 88 89 91
81 83 84 85 86 87 89 91 92 94 95 97 98 99 100 101 102 103 103 103 103 103 102 102 102 101 101 100 100 100 99 98 97 95 94 93 92 92 91 90 90 89 88 87 86 84 83 82 80 79 77 76 74 72 71 69 68 66 65 64 64 63 63 63 64 64 64 64 64 65 66 67 68 70 71 73 75 77 79 81 83 84 85 86 88 90
82 83 84 86 87 88 90 91 93 94 96 97 98 100 100 101 101 102 102 102 102 101 101 100 100 99 99 98 98 98 97 97 95 94 93 92 91 90 89 88 87 86 85 84 82 81 79 78 76 75 73 72 70 68 67 65 64 63 61 61 60 60 60 61 61 61 61 61 62 62 63 64 66 67 69 70 72 74 76 78 80 82 83 85 86 89
82 84 85 86 87 89 90 92 93 95 96 98 99 100 101 101 101 101 101 101 100 100 100 99 98 97 97 97 97 97 96 95 94 93 91 90 89 88 87 86 84 83 82 80 79 77 76 74 73 71 70 68 67 65 63 62 60 59 58 58 58 58 58 58 58 58 59 59 59 60 61 62 63 65 66 68 70 72 74 76 78 80 81 83 85 87
83 84 85 87 88 89 91 92 94 96 97 98 99 100 101 101 101 101 101 100 100 100 99 98 97 96 96 96 96 96 95 94 92 91 90 88 87 86 85 83 82 80 78 77 76 74 72 71 69 68 66 65 64 62 60 59 57 56 56 55 55 55 55 56 56 56 56 57 57 58 59 60 61 62 64 65 67 69 71 73 75 77 79 81 83 86
83 85 86 87 89 90 92 93 95 97 98 99 100 100 101 101 101 101 100 100 100 99 98 97 96 95 95 94 94 94 94 92 91 89 88 86 85 83 82 81 79 77 75 74 72 71 69 67 66 64 63 62 61 59 58 56 55 54 54 54 53 53 53 53 53 54 54 55 55 56 57 58 59 60 61 63 64 66 68 70 72 75 77 79 81 84
84 85 87 88 89 91 92 94 96 97 99 100 100 101 101 101 101 101 101 100 100 99 98 97 96 95 94 93 93 93 92 91 89 88 86 84 82 81 79 78 76 74 72 70 69 68 66 65 63 62 61 59 58 57 55 54 53 52 52 52 52 51 51 51 51 52 52 53 54 54 55 56 57 58 59 61 62 64 66 68 70 72 74 77 79 82
84 86 87 88 90 91 93 95 96 98 99 100 101 101 101 102 102 101 101 101 100 99 98 96 95 94 93 92 91 91 90 89 87 86 84 82 80 78 77 75 73 71 69 67 66 65 64 63 61 60 58 57 56 55 53 52 51 51 51 50 50 50 49 49 49 50 51 51 52 53 53 54 55 56 57 59 60 61 63 65 68 70 72 75 78 81
85 86 88 89 90 92 94 95 97 98 99 100 101 102 102 102 102 102 101 101 100 99 97 96 94 93 92 91 90 89 88 87 85 84 82 80 78 76 74 72 71 68 66 64 63 62 62 61 60 59 57 55 54 52 51 50 49 49 49 49 49 48 48 47 48 48 49 50 51 51 52 53 54 54 55 57 58 59 61 63 65 68 70 73 76 79
86 87 88 90 91 93 94 96 97 99 100 101 102 102 103 103 103 102 102 101 100 98 96 95 93 92 91 90 89 88 86 85 84 82 80 78 76 74 72 70 68 66 64 62 61 60 60 59 59 58 56 54 52 50 49 48 47 47 47 47 47 47 46 46 46 46 47 48 49 50 51 51 52 53 53 54 56 57 59 61 63 66 68 71 74 77
86 87 89 90 92 93 95 96 98 99 101 102 102 103 103 103 103 103 102 101 99 98 96 94 92 91 90 89 87 86 85 83 82 80 79 77 75 72 70 68 66 64 63 61 59 58 58 57 57 56 55 53 51 49 48 46 46 45 45 46 46 46 45 44 44 45 46 47 48 49 49 50 50 51 52 53 54 55 57 59 61 64 66 69 72 75
86 87 89 90 92 93 95 97 98 100 101 102 103 104 104 104 103 103 102 100 99 97 95 93 92 90 89 87 86 84 83 82 80 79 77 75 73 71 68 66 64 63 61 60 58 57 56 55 55 55 54 53 51 49 47 45 44 44 44 44 44 44 44 43 43 43 44 45 46 47 48 48 49 49 50 51 52 54 55 58 60 62 65 67 70 74
86 87 89 90 92 94 95 97 99 100 102 103 103 104 104 104 103 103 102 100 99 96 94 92 91 89 88 86 85 83 82 80 79 77 76 74 71 69 67 65 63 61 60 59 57 56 55 54 53 53 52 51 50 48 46 44 43 42 42 42 42 42 42 42 42 42 43 44 45 46 46 47 47 48 48 49 50 52 54 56 58 61 63 66 69 72
86 88 89 91 92 94 96 98 99 101 102 103 104 104 104 104 104 103 102 100 98 96 94 92 90 88 86 85 84 82 81 79 78 76 74 72 70 68 65 63 61 60 59 57 57 56 55 53 52 51 50 49 48 47 45 43 42 41 41 41 41 41 41 40 40 41 41 42 43 44 45 45 45 46 46 47 49 50 52 55 57 59 61 64 67 70
87 88 90 91 93 95 96 98 100 101 102 103 104 104 104 104 104 103 102 100 98 96 93 91 89 87 85 83 82 81 80 79 77 75 73 71 69 67 64 62 60 59 57 56 56 55 54 53 52 50 49 48 47 45 44 42 41 40 40 40 39 39 39 39 39 39 40 41 42 42 43 44 44 44 45 46 47 49 51 53 55 58 60 62 65 68
87 88 90 91 93 95 97 98 100 101 102 103 104 104 104 104 103 103 101 100 98 95 93 91 89 87 84 82 81 79 78 77 75 74 72 70 68 66 64 61 59 58 56 55 55 54 53 52 51 50 49 47 45 44 42 41 40 39 39 38 37 37 37 37 38 38 39 39 40 41 41 42 42 43 44 45 46 48 50 52 54 56 58 61 63 66
87 89 90 92 93 95 97 98 100 101 102 103 103 103 103 103 103 102 101 99 97 95 93 91 89 87 85 82 80 79 77 76 74 72 70 68 66 65 63 61 59 57 55 54 54 53 52 51 51 49 48 46 44 43 41 39 39 38 37 37 36 36 36 36 36 37 37 38 39 39 40 40 41 42 42 43 45 47 49 50 52 54 56 59 62 65
87 89 90 92 93 95 97 98 100 101 102 102 102 102 102 102 102 101 100 98 96 94 92 91 89 87 85 82 80 78 77 75 73 71 69 67 65 64 62 61 59 57 55 54 52 51 51 50 49 48 47 46 44 42 40 38 37 37 36 35 34 34 34 34 35 35 36 36 37 38 38 39 40 40 41 42 44 45 47 49 50 52 54 57 60 63
88 89 90 92 93 95 96 98 99 101 101 102 102 101 101 101 100 100 98 97 95 93 91 90 88 86 84 82 80 78 76 75 73 70 68 66 64 62 61 60 59 57 56 54 52 51 49 48 48 47 46 45 43 41 39 37 36 35 34 34 33 33 33 33 34 34 34 35 36 36 37 38 38 39 40 41 42 44 45 46 48 50 52 55 57 61
88 89 91 92 93 95 96 98 99 100 101 101 101 100 100 100 100 99 98 96 94 92 90 89 88 86 84 82 80 78 76 74 72 70 67 65 63 61 60 59 58 57 56 55 53 51 49 47 46 45 44 43 42 40 38 36 35 34 33 32 32 31 31 32 32 33 33 33 34 35 36 36 37 38 39 40 41 42 43 44 46 48 50 52 55 58
88 89 91 92 93 95 96 97 99 99 100 100 100 99 99 99 99 98 97 95 93 92 90 88 87 85 84 82 80 78 76 74 71 69 67 64 62 60 59 58 57 57 56 55 54 52 50 47 45 44 43 42 40 39 37 35 34 33 32 31 31 30 30 30 31 31 31 32 33 33 34 35 36 36 37 38 39 40 41 42 44 46 48 50 53 55
88 89 91 92 93 94 96 97 98 99 99 99 99 99 98 98 98 97 96 94 92 91 89 87 85 84 83 81 80 78 76 74 71 68 66 63 61 59 58 56 56 55 55 54 54 52 50 48 46 43 41 40 39 38 36 35 33 31 31 30 30 29 29 29 29 30 30 31 31 32 33 33 34 35 35 36 37 38 39 41 42 44 46 48 50 53
88 89 90 91 93 94 96 97 98 99 99 99 99 98 98 97 97 96 95 93 91 89 88 86 84 82 81 80 79 78 76 74 71 68 65 62 60 58 56 55 54 53 53 53 52 52 50 48 46 43 41 39 38 37 35 34 32 31 29 29 28 28 28 28 28 28 29 29 30 30 31 32 32 33 34 35 36 37 38 40 41 43 45 47 49 52
88 89 90 91 93 94 96 97 98 98 99 98 98 98 97 97 96 95 94 93 91 89 87 85 83 81 80 78 77 77 75 74 71 68 65 62 59 57 55 53 52 51 50 50 50 50 49 48 46 43 41 38 37 35 34 33 31 30 29 28 27 27 27 27 27 27 27 27 28 29 29 30 31 32 32 33 35 36 37 38 40 42 44 46 49 52
88 89 90 91 93 94 95 97 97 98 98 98 97 97 96 96 95 95 93 92 90 88 86 84 82 80 78 77 76 75 74 73 71 68 66 63 60 57 55 53 51 50 49 48 48 47 47 47 45 43 41 38 36 34 33 32 30 29 28 27 26 26 26 26 25 25 26 26 26 27 28 29 29 30 31 32 33 35 36 38 40 42 44 46 49 53
87 89 90 91 93 94 95 96 97 98 98 97 97 96 96 95 95 94 93 91 90 88 86 83 81 79 77 75 74 73 72 71 70 68 66 64 61 59 56 54 52 50 48 46 46 45 45 44 44 42 40 38 36 34 32 31 30 28 27 26 25 25 24 24 24 24 24 24 25 26 26 27 28 29 30 31 33 34 36 38 40 42 44 47 50 53
87 88 90 91 92 94 95 96 97 97 97 97 96 96 95 95 94 94 92 91 89 87 85 83 80 78 76 74 73 72 70 69 68 66 65 63 62 60 58 56 53 51 49 46 45 43 43 42 42 41 40 38 36 34 32 30 29 27 26 25 24 24 23 23 23 23 23 23 24 24 25 26 27 28 29 30 32 34 36 38 40 42 45 47 51 54
87 88 89 91 92 93 95 95 96 96 96 96 96 95 95 94 94 93 92 90 89 87 85 82 80 77 75 73 72 70 69 68 66 64 63 62 61 60 59 57 55 53 50 48 45 43 41 40 40 39 38 37 35 33 31 29 28 27 25 24 23 23 22 22 22 21 22 22 22 23 24 25 25 26 28 29 31 33 35 37 39 41 44 47 50 53
87 88 89 90 92 93 94 95 95 95 95 95 95 95 94 94 93 92 91 90 88 86 84 82 79 77 74 73 71 69 68 66 65 63 61 60 59 59 58 57 56 54 52 49 47 44 42 40 38 37 37 36 34 33 31 29 27 26 25 23 23 22 21 21 20 20 20 21 21 22 23 23 24 25 27 28 30 32 34 36 38 40 43 46 49 52
86 87 88 90 91 92 93 94 94 95 95 94 94 94 93 93 92 92 90 89 87 86 83 81 79 76 74 72 70 69 67 65 63 61 60 58 57 57 56 55 55 53 52 50 48 45 43 40 38 37 35 35 33 32 30 28 27 25 24 23 22 21 20 20 19 19 20 20 20 21 22 22 23 24 26 27 29 31 33 35 37 39 42 45 48 51
Wind_Direction
291 292 292 293 293 293 294 294 294 294 295 295 295 296 296 296 296 296 296 296 296 296 296 295 295 295 295 295 294 294 293 293 292 292 291 290 290 289 289 288 288 287 286 286 285 285 284 284 283 282 282 281 280 280 279 278 278 277 277 276 276 275 275 275 274 274 274 274 274 273 273 272 272 271 269 268 267 266 264 263 262 261 260 260 259 258
292 292 293 293 293 293 294 294 294 295 295 295 295 296 296 296 296 296 296 296 296 296 296 296 296 295 295 295 294 294 293 293 292 291 291 290 290 289 289 288 288 287 287 286 286 285 285 284 283 283 282 282 281 280 279 279 278 277 276 276 275 274 274 273 273 272 272 272 272 272 271 271 270 269 268 267 266 265 264 263 261 260 259 258 258 257
292 293 293 293 293 294 294 294 295 295 295 295 295 296 296 296 296 296 297 297 297 297 296 296 296 296 295 295 294 294 293 293 292 292 291 291 291 290 290 289 289 288 288 287 287 286 286 285 284 284 283 282 282 281 280 279 278 278 277 276 275 274 273 273 272 271 271 270 270 270 270 269 269 268 267 266 266 265 264 262 261 259 258 257 256 256
293 293 293 294 294 294 294 294 295 295 295 295 296 296 296 296 297 297 297 297 297 297 297 296 296 296 295 295 294 294 294 293 293 293 292 292 292 291 291 290 290 289 289 288 288 287 287 286 285 285 284 283 282 282 281 280 279 278 277 276 276 275 274 273 272 271 270 270 269 269 268 268 267 267 266 265 265 264 263 262 261 259 257 256 255 254
293 293 293 294 294 294 294 295 295 295 296 296 296 297 297 297 297 297 298 297 297 297 297 297 296 296 296 295 295 295 294 294 294 293 293 293 292 292 292 291 291 290 290 289 289 288 287 287 286 285 285 284 283 282 282 281 280 279 278 277 276 275 274 273 272 271 270 269 268 268 267 267 266 266 265 264 264 263 262 261 260 259 257 255 254 253
293 293 294 294 294 294 295 295 296 296 296 297 297 297 298 298 298 298 298 298 298 297 297 297 297 297 296 296 296 295 295 295 294 294 294 293 293 293 292 292 291 291 290 290 289 288 288 287 287 286 285 285 284 283 282 281 280 279 279 278 277 276 275 274 272 271 270 269 268 267 266 265 265 264 264 263 263 262 261 260 259 258 257 255 253 251
293 294 294 294 295 295 295 296 296 297 297 297 298 298 298 298 298 298 298 298 298 298 298 298 298 297 297 297 296 296 296 295 295 295 294 294 293 293 293 292 291 291 290 290 289 289 288 287 287 286 286 285 284 283 283 282 281 280 279 278 277 276 275 274 273 272 270 269 268 267 266 265 264 263 263 262 261 261 260 259 258 257 256 255 253 251
294 294 294 295 295 296 296 296 297 297 298 298 298 298 298 298 299 299 299 299 299 299 299 298 298 298 298 297 297 296 296 296 295 295 295 294 294 293 293 292 292 291 290 290 289 289 288 288 287 286 286 285 285 284 283 282 281 280 280 279 277 276 275 274 273 272 270 269 268 267 265 264 263 262 261 260 260 259 259 258 256 256 255 254 252 250
294 294 295 295 296 296 297 297 297 298 298 298 298 299 299 299 299 299 299 299 299 299 299 299 299 298 298 298 297 297 297 296 296 295 295 295 294 293 293 292 292 291 291 290 289 289 288 288 287 287 286 285 285 284 283 282 282 281 280 279 278 277 275 274 273 272 270 269 268 267 265 264 262 261 260 259 258 258 257 256 255 254 254 253 252 250
294 295 295 296 296 297 297 298 298 298 298 299 299 299 299 300 300 300 300 300 300 300 300 300 299 299 299 298 298 297 297 297 296 296 295 295 294 294 293 292 292 291 291 290 290 289 289 288 288 287 286 286 285 284 283 283 282 281 280 279 278 277 276 274 273 272 270 269 267 266 265 263 262 260 259 258 257 256 255 255 254 253 252 251 250 249
295 296 296 297 297 297 298 298 298 299 299 299 300 300 300 300 301 301 301 301 301 300 300 300 300 300 299 299 298 298 298 297 297 296 296 295 295 294 293 293 292 292 291 291 290 290 289 289 288 288 287 286 285 284 284 283 282 281 280 279 278 277 276 275 273 272 270 269 267 266 264 263 261 260 258 257 255 254 253 253 252 251 250 250 249 248
296 296 297 297 298 298 298 299 299 299 300 300 301 301 301 301 302 302 302 302 301 301 301 301 300 300 300 299 299 298 298 298 297 297 296 296 295 294 294 293 293 292 292 291 291 290 290 289 289 288 287 287 286 285 284 283 282 281 280 279 278 277 276 275 273 272 270 269 267 265 264 262 261 259 258 256 254 253 252 251 250 249 249 248 247 246
297 297 298 298 298 299 299 299 300 300 301 302 302 303 303 303 302 302 302 302 302 302 301 301 301 301 300 300 299 299 298 298 297 297 296 296 295 295 294 293 293 293 292 292 291 291 291 290 290 289 288 287 286 285 284 283 282 281 280 280 279 277 276 275 273 272 270 268 266 265 263 261 260 258 257 255 253 252 250 249 248 247 247 246 245 245
298 298 298 299 299 299 300 301 301 302 302 303 303 304 303 303 303 303 303 303 302 302 302 302 301 301 301 300 300 299 299 298 298 297 297 296 295 295 294 294 294 293 293 293 292 292 291 291 290 289 289 288 287 286 285 284 283 282 281 280 279 278 276 275 273 271 270 268 266 264 262 260 258 257 255 254 252 251 249 248 247 246 245 244 243 243
298 299 299 299 300 300 301 302 303 303 304 304 304 304 304 304 304 303 303 303 303 303 302 302 302 301 301 301 300 299 299 298 298 297 297 296 296 295 295 294 294 294 294 293 293 292 292 291 291 290 289 288 287 286 286 285 284 283 282 281 280 278 277 275 273 271 269 267 265 263 261 259 257 255 254 253 251 250 248 246 245 244 243 242 241 241
299 299 300 300 301 301 302 303 304 304 305 305 305 305 305 305 304 304 304 304 303 303 303 303 302 302 301 301 300 300 299 298 298 297 297 297 296 296 295 295 294 294 294 293 293 292 292 291 291 290 289 288 288 287 286 286 285 284 283 281 280 278 277 275 273 271 268 266 264 262 260 258 256 254 252 251 250 248 247 245 244 242 241 240 239 239
300 300 301 301 302 303 303 304 304 305 305 305 305 305 305 305 305 304 304 304 304 304 303 303 303 302 301 301 300 299 299 298 298 298 297 297 297 296 296 295 295 294 294 294 293 292 292 291 291 290 290 289 288 288 287 286 285 284 283 281 280 278 276 274 272 270 268 266 263 261 259 257 254 252 251 249 248 247 246 244 242 241 240 239 238 237
300 301 302 302 303 304 304 305 305 305 306 306 306 306 305 305 305 305 305 304 304 304 304 303 303 302 302 301 300 300 299 299 298 298 298 297 297 296 296 295 295 295 294 294 293 293 292 292 291 291 290 290 289 288 288 287 285 284 283 281 279 278 276 274 272 270 267 265 263 260 258 256 254 252 250 248 247 246 245 243 241 240 238 237 236 235
301 302 302 303 304 304 305 305 306 306 306 306 306 306 306 306 305 305 305 305 305 304 304 304 303 303 302 302 301 300 299 299 299 298 298 298 298 297 297 296 295 295 295 294 294 293 293 292 292 291 291 290 289 288 288 286 285 284 282 281 279 277 275 273 271 269 267 265 262 260 258 255 253 251 249 247 246 245 244 242 241 239 237 236 235 233
302 302 303 304 305 305 305 306 306 306 306 306 307 306 306 306 306 306 305 305 305 305 305 304 304 304 303 302 302 301 300 300 300 299 299 299 299 298 297 297 296 296 295 295 294 294 293 293 292 292 291 290 289 288 287 286 285 284 282 280 279 277 275 273 271 269 267 265 262 260 257 255 253 251 249 247 245 244 243 242 240 238 236 235 233 232
303 303 304 304 305 306 306 306 306 307 307 307 307 307 307 306 306 306 306 306 306 306 305 305 305 305 304 304 303 302 302 301 301 301 301 300 300 299 298 298 297 297 296 296 295 294 294 293 293 292 291 290 289 288 287 286 285 283 282 280 279 277 275 273 271 269 267 264 262 260 257 255 253 250 249 247 245 243 242 241 239 238 236 234 232 231
303 304 304 305 306 306 306 307 307 307 307 308 308 308 307 307 307 307 307 307 307 307 307 307 307 306 306 305 305 304 303 303 303 303 302 302 301 300 300 299 298 298 297 297 296 295 295 294 293 292 291 290 289 288 287 286 285 283 282 280 278 277 275 272 270 268 266 264 262 259 257 255 252 250 248 246 245 243 242 240 239 237 235 233 231 230
304 305 305 306 306 307 307 307 308 308 308 308 308 308 308 308 308 308 308 308 308 308 308 308 308 308 307 307 306 305 305 304 304 304 304 304 303 302 301 300 300 299 298 298 297 296 295 294 293 292 291 290 290 289 287 286 285 283 282 280 278 276 274 272 270 268 266 264 261 259 257 254 252 250 248 246 244 243 241 240 238 237 235 233 231 229
305 305 306 306 307 308 308 308 309 309 309 309 309 309 309 309 309 309 309 309 309 310 310 310 310 309 309 308 307 307 306 306 306 306 305 305 304 303 302 301 301 300 299 299 298 297 296 295 294 293 292 291 290 289 288 286 285 283 281 280 277 275 273 271 269 267 265 263 261 259 256 254 252 250 248 246 244 242 240 239 238 236 234 232 230 228
306 306 307 307 308 308 309 309 309 310 310 310 310 310 310 310 310 310 310 311 311 311 311 312 312 311 311 310 309 309 308 308 307 307 307 306 305 304 303 302 302 301 300 300 299 298 297 296 295 294 292 291 290 289 288 286 285 283 281 279 277 275 273 271 269 267 265 263 260 258 256 254 252 249 247 245 243 242 240 238 237 235 233 231 229 228
306 307 308 308 309 309 310 310 311 311 311 311 311 311 311 311 312 312 312 312 313 313 314 314 314 313 312 312 311 310 309 309 308 308 307 307 306 305 304 304 303 302 301 301 300 299 298 296 295 294 293 292 291 290 288 287 285 283 281 279 276 274 272 270 268 266 264 262 260 258 256 253 251 249 247 245 243 241 239 238 236 234 233 231 229 227
307 308 309 309 310 311 311 311 312 312 312 312 313 313 313 313 314 314 314 315 315 316 316 316 315 315 314 313 312 311 310 310 309 309 308 308 307 306 305 305 304 303 303 302 301 300 298 297 296 295 294 293 291 290 289 287 285 283 281 279 276 274 272 270 268 266 264 262 260 257 255 253 251 249 247 245 243 241 239 237 236 234 232 230 228 226
309 309 310 311 311 312 312 313 313 313 314 314 314 314 315 315 316 316 317 317 317 318 317 317 316 316 315 314 313 312 312 311 311 310 310 309 308 307 306 306 305 304 304 303 302 301 300 298 297 296 294 293 292 291 289 288 286 284 281 279 276 274 272 270 268 265 263 261 259 257 255 253 251 249 247 245 243 240 238 237 235 233 231 229 227 226
310 310 311 312 312 313 313 314 314 315 315 315 316 316 317 317 318 318 319 319 319 319 319 318 317 317 316 315 314 313 312 312 311 311 311 310 309 308 307 307 306 305 305 304 303 302 301 299 298 297 295 294 292 291 290 288 286 284 282 279 277 274 272 270 267 265 263 261 259 257 255 253 251 249 247 244 242 240 238 236 234 232 230 229 227 225
311 311 312 313 313 314 314 315 315 316 317 317 318 318 319 319 319 320 320 320 321 320 320 319 318 318 317 316 315 314 313 313 313 312 312 312 311 310 309 308 307 307 306 305 305 304 302 301 299 298 296 295 293 292 290 289 287 285 282 280 277 275 272 270 267 265 262 260 258 256 254 252 250 248 246 244 242 240 237 235 233 231 230 228 226 224
312 312 313 313 314 315 315 316 317 318 318 319 319 320 320 321 321 321 321 322 322 321 321 320 319 319 318 317 317 316 315 314 314 314 314 313 312 311 310 310 309 308 307 307 306 305 303 302 301 299 298 296 294 292 291 289 287 285 283 280 278 275 273 270 267 264 262 260 258 256 254 252 250 248 246 244 241 239 237 235 233 231 229 227 225 223
312 313 314 314 315 316 316 317 318 319 320 321 321 321 322 322 322 322 322 323 322 322 322 321 320 319 319 318 318 317 316 316 316 315 315 315 314 313 312 311 310 309 309 308 307 306 305 303 302 301 299 297 296 294 292 290 288 285 283 280 278 276 273 270 267 264 262 259 257 255 253 251 250 247 245 243 241 239 236 234 232 230 228 226 224 223
313 313 314 315 316 317 318 319 320 321 321 322 322 323 323 323 323 323 323 323 323 323 322 322 321 320 320 319 318 318 317 317 317 317 316 316 315 314 313 312 311 311 310 309 308 307 306 304 303 302 300 299 297 295 293 291 289 286 283 281 278 276 273 270 267 264 261 259 257 255 253 251 249 247 245 243 240 238 236 234 231 229 227 225 224 222
313 314 315 316 317 318 319 320 321 322 322 323 323 323 324 324 324 324 324 324 324 324 323 323 322 322 321 320 320 319 319 318 318 318 317 317 316 315 314 314 313 312 311 311 310 308 307 306 304 303 301 300 298 297 295 293 290 287 284 281 278 276 273 271 267 264 261 259 257 255 253 251 249 247 244 242 240 238 235 233 231 229 227 225 223 222
314 315 316 317 318 319 320 321 322 323 323 324 324 324 324 324 325 325 325 325 325 324 324 323 323 322 322 322 321 321 320 320 319 319 319 318 317 316 316 315 314 314 313 312 311 310 309 307 305 304 302 301 299 298 296 294 291 288 285 282 279 276 273 271 268 264 261 259 256 254 253 251 249 246 244 241 239 237 235 233 231 228 226 224 222 221
315 316 317 318 319 320 321 322 323 323 324 324 325 325 325 325 325 325 326 325 325 325 325 324 324 323 323 323 323 322 322 321 321 320 320 319 318 317 317 316 315 315 314 313 312 311 310 308 307 305 304 302 300 299 297 295 292 289 286 283 280 277 274 271 267 264 261 259 256 254 252 250 248 246 243 241 238 236 234 232 230 228 226 224 222 220
316 317 318 318 319 320 321 322 323 324 325 325 325 326 326 326 326 326 326 326 326 326 326 325 325 324 324 324 323 323 323 322 322 321 321 320 319 318 318 317 317 316 315 315 314 313 311 310 308 307 305 303 302 300 298 296 293 290 286 283 280 277 274 271 268 264 261 258 256 254 252 250 247 245 242 240 237 235 233 231 230 228 225 223 221 219
316 317 318 319 320 321 322 323 324 324 325 326 326 326 326 326 327 327 327 327 327 327 327 326 326 325 325 325 324 324 324 323 323 322 322 321 320 320 319 318 318 317 316 316 315 314 312 311 309 308 306 305 303 301 299 297 294 291 287 284 281 277 274 271 267 264 261 258 256 253 251 249 247 244 242 239 237 235 233 231 229 227 225 223 221 219
317 318 319 319 320 321 322 323 324 325 325 326 326 327 327 327 327 327 328 328 328 328 328 327 327 326 326 326 325 325 325 324 324 323 323 322 322 321 320 320 319 318 318 317 316 315 313 312 311 309 308 306 304 303 300 298 295 292 288 285 282 278 274 271 267 264 261 258 255 253 250 248 246 243 241 238 236 234 233 231 229 227 225 223 221 219
317 318 319 320 321 322 323 323 324 325 326 326 327 327 327 327 328 328 328 328 329 329 328 328 328 327 327 326 326 326 326 325 325 324 324 323 323 322 322 321 320 320 319 318 317 316 314 313 312 310 309 307 306 304 302 299 296 293 289 286 282 278 274 270 267 264 261 258 254 252 250 247 245 243 240 238 236 234 232 231 229 227 226 224 222 220
317 318 319 320 321 322 323 324 325 325 326 327 327 327 328 328 328 329 329 329 329 329 329 329 328 328 327 327 327 327 326 326 326 325 325 324 324 323 323 322 321 321 320 319 318 317 316 314 313 311 310 309 307 305 303 300 297 294 290 287 283 279 275 271 267 264 260 257 254 252 249 247 244 242 239 237 235 233 231 230 228 226 225 223 222 220
318 319 319 320 321 322 323 324 325 326 326 327 327 328 328 329 329 330 330 330 330 330 330 330 329 329 328 328 327 327 327 327 326 326 326 325 325 324 324 323 323 322 321 320 319 318 317 316 314 313 311 310 308 306 304 302 299 295 292 288 284 280 275 271 267 264 260 257 254 251 248 246 244 241 239 236 234 232 230 228 227 225 224 222 220 219
318 319 320 320 321 322 323 324 325 326 327 327 328 329 329 330 330 330 330 331 331 331 331 331 330 330 329 329 328 328 327 327 327 327 326 326 325 325 324 324 324 323 322 321 320 319 318 317 316 314 313 311 310 308 305 303 300 297 293 290 285 281 277 272 268 264 261 257 254 251 248 245 243 240 238 235 233 231 228 226 225 223 222 221 219 217
318 319 320 321 322 323 324 325 326 327 327 328 329 329 330 330 331 331 331 331 331 331 332 331 331 331 330 330 329 329 328 328 327 327 327 326 326 326 325 325 324 324 323 321 320 319 318 318 317 316 314 313 311 309 307 305 302 299 295 291 287 283 278 273 269 265 261 258 254 251 248 245 242 239 237 234 231 229 227 224 223 221 220 218 217 215
318 319 320 321 322 323 324 325 327 327 328 329 329 330 330 331 331 331 332 332 332 332 332 332 332 332 331 331 330 330 329 328 328 327 327 327 326 326 326 326 325 325 323 322 321 320 319 318 317 316 315 314 312 310 308 306 304 301 297 293 289 284 279 275 270 266 262 258 255 251 248 245 242 238 235 233 230 227 225 222 220 218 217 215 214 213
319 320 321 322 323 324 325 326 327 328 329 329 330 331 331 331 332 332 332 332 333 333 333 333 333 332 332 332 331 331 330 329 329 328 328 327 327 327 327 327 326 326 325 324 322 321 320 319 318 317 316 315 314 312 310 307 305 302 299 294 290 285 281 276 272 267 263 259 255 251 248 244 241 237 234 231 228 225 223 220 218 216 214 213 212 211
319 320 321 322 323 325 326 327 328 328 329 330 331 331 332 332 332 333 333 333 333 333 333 333 333 333 333 332 332 331 331 330 329 329 329 328 328 328 328 328 327 327 326 325 324 322 321 319 318 318 317 316 315 313 311 308 306 303 300 296 291 287 282 277 273 268 263 259 255 251 247 244 240 236 233 230 227 224 221 219 216 215 213 211 210 209
320 321 322 323 324 325 326 327 328 329 330 330 331 332 332 332 333 333 333 333 334 334 334 334 334 334 333 333 333 332 332 331 330 330 330 329 329 329 329 328 328 328 328 327 325 324 323 321 320 319 318 317 316 314 312 310 307 304 301 297 292 288 283 278 273 268 264 259 254 250 246 243 239 235 232 229 226 223 220 218 216 214 212 211 210 209
321 322 323 324 325 326 327 328 329 329 330 331 332 332 333 333 333 334 334 334 334 334 334 334 334 334 334 334 334 333 333 332 331 331 330 330 330 329 329 329 329 329 329 328 327 326 324 323 321 320 319 317 316 315 313 311 308 305 302 298 293 288 283 278 273 268 263 258 254 249 245 241 238 234 231 228 225 222 220 217 215 214 212 211 210 210
322 323 323 324 325 326 327 328 329 330 331 332 332 333 333 333 334 334 334 334 334 335 335 335 335 335 335 335 334 334 333 333 332 332 331 331 330 330 330 329 329 329 329 329 328 327 326 325 323 321 320 318 317 316 314 312 309 306 303 298 294 289 284 279 273 268 263 257 252 248 244 240 236 232 229 226 224 221 219 217 215 213 212 211 211 210
322 323 324 325 325 326 327 328 329 330 331 332 333 333 334 334 334 334 335 335 335 335 335 335 335 335 335 335 335 335 334 334 333 333 332 332 331 331 330 330 329 329 329 329 329 328 328 327 325 323 322 320 318 317 315 313 311 307 304 299 295 289 284 278 273 267 262 256 251 246 241 237 234 230 228 225 223 220 218 216 214 212 211 211 211 210
Height
10514 10511 10508 10506 10502 10499 10496 10494 10492 10489 10486 10482 10479 10477 10474 10471 10467 10464 10461 10459 10455 10452 10448 10445 10442 10439 10436 10432 10429 10426 10423 10420 10417 10414 10412 10409 10407 10404 10402 10400 10397 10395 10393 10391 10389 10387 10386 10384 10383 10382 10381 10380 10379 10378 10378 10377 10377 10377 10377 10376 10376 10376 10377 10377 10377 10377 10377 10378 10379 10381 10383 10387 10391 10395 10399 10402 10406 10409 10413 10416 10419 10422 10426 10428 10431 10434
10507 10505 10502 10499 10497 10494 10490 10487 10486 10484 10481 10477 10473 10471 10467 10464 10460 10457 10454 10451 10447 10444 10441 10437 10434 10430 10427 10424 10421 10417 10414 10411 10407 10404 10401 10399 10396 10394 10391 10388 10386 10383 10381 10379 10377 10375 10373 10372 10371 10369 10368 10367 10366 10366 10365 10364 10364 10364 10364 10364 10365 10365 10365 10366 10366 10367 10367 10368 10369 10370 10372 10375 10378 10382 10386 10390 10393 10397 10401 10406 10410 10414 10417 10420 10422 10426
10501 10498 10496 10493 10491 10487 10484 10481 10479 10477 10475 10472 10468 10464 10461 10458 10454 10450 10446 10443 10439 10436 10432 10429 10426 10422 10418 10414 10411 10408 10404 10401 10397 10394 10391 10387 10384 10382 10379 10376 10373 10371 10368 10366 10364 10362 10360 10359 10357 10356 10355 10354 10352 10352 10351 10351 10351 10351 10351 10351 10352 10352 10352 10353 10354 10355 10356 10357 10358 10359 10361 10363 10366 10369 10373 10377 10381 10385 10389 10394 10399 10403 10407 10411 10414 10417
10495 10492 10489 10486 10484 10481 10478 10476 10473 10471 10468 10466 10462 10459 10455 10451 10447 10444 10440 10436 10432 10429 10424 10421 10417 10414 10410 10406 10402 10399 10395 10391 10387 10384 10380 10377 10373 10370 10367 10364 10361 10357 10355 10352 10350 10348 10346 10344 10343 10342 10341 10339 10338 10337 10336 10336 10336 10336 10336 10336 10337 10337 10339 10340 10341 10342 10343 10345 10346 10348 10349 10351 10354 10357 10360 10364 10369 10372 10377 10381 10386 10392 10397 10401 10404 10407
10489 10486 10483 10481 10477 10474 10471 10469 10467 10464 10461 10458 10455 10452 10448 10445 10441 10437 10434 10430 10426 10422 10417 10413 10409 10406 10401 10397 10392 10389 10385 10381 10377 10373 10369 10366 10362 10359 10355 10351 10348 10345 10342 10339 10336 10334 10332 10330 10329 10327 10326 10324 10324 10322 10322 10321 10321 10321 10321 10321 10322 10322 10324 10325 10326 10328 10329 10331 10333 10336 10337 10339 10342 10344 10347 10351 10356 10360 10364 10369 10374 10379 10384 10391 10395 10398
10482 10480 10477 10474 10471 10468 10465 10462 10460 10458 10455 10451 10448 10445 10442 10438 10435 10431 10427 10422 10419 10414 10410 10405 10401 10397 10392 10387 10383 10379 10376 10372 10367 10363 10359 10356 10352 10347 10344 10340 10336 10332 10329 10326 10322 10320 10317 10316 10314 10312 10311 10309 10308 10307 10306 10306 10305 10305 10305 10306 10306 10307 10308 10309 10311 10312 10314 10317 10319 10322 10324 10327 10329 10332 10335 10338 10342 10346 10351 10356 10361 10366 10371 10378 10384 10389
10476 10473 10471 10468 10465 10462 10459 10457 10454 10451 10448 10445 10441 10438 10434 10432 10428 10424 10420 10416 10411 10407 10402 10397 10392 10387 10384 10379 10374 10370 10366 10362 10357 10354 10349 10345 10341 10336 10332 10328 10324 10320 10316 10313 10309 10306 10304 10301 10299 10298 10296 10294 10293 10292 10291 10290 10289 10289 10289 10290 10291 10292 10293 10294 10296 10297 10299 10302 10304 10307 10310 10313 10316 10319 10322 10325 10328 10332 10337 10343 10348 10353 10358 10364 10371 10377
10469 10466 10464 10462 10459 10456 10452 10450 10447 10446 10442 10439 10435 10432 10428 10424 10421 10417 10413 10408 10403 10399 10394 10389 10384 10379 10374 10370 10365 10360 10356 10351 10347 10343 10339 10334 10329 10324 10320 10316 10311 10307 10303 10299 10296 10292 10290 10287 10286 10284 10282 10280 10279 10277 10276 10274 10274 10274 10274 10274 10275 10276 10277 10279 10281 10282 10284 10287 10289 10292 10295 10298 10302 10305 10309 10312 10315 10319 10323 10329 10335 10340 10345 10351 10357 10364
10464 10461 10457 10455 10453 10450 10446 10442 10440 10438 10436 10433 10429 10426 10422 10417 10413 10409 10404 10401 10396 10391 10386 10381 10375 10369 10364 10359 10355 10351 10346 10341 10336 10332 10328 10323 10317 10312 10307 10303 10299 10294 10291 10286 10282 10279 10276 10273 10271 10269 10268 10266 10264 10262 10261 10260 10259 10259 10259 10259 10259 10261 10262 10264 10266 10267 10270 10272 10274 10277 10280 10283 10286 10291 10294 10298 10301 10305 10309 10314 10321 10326 10332 10337 10344 10351
10458 10456 10452 10449 10446 10444 10441 10437 10432 10430 10429 10426 10422 10419 10416 10412 10407 10401 10396 10391 10387 10382 10377 10372 10367 10361 10355 10349 10344 10340 10336 10331 10325 10320 10316 10311 10306 10300 10294 10290 10286 10282 10277 10273 10269 10265 10262 10259 10257 10256 10254 10252 10251 10249 10247 10246 10245 10244 10244 10244 10245 10246 10247 10249 10251 10253 10256 10258 10261 10263 10266 10268 10271 10275 10279 10283 10287 10291 10295 10300 10306 10312 10318 10324 10330 10337
10452 10449 10446 10443 10440 10437 10435 10431 10427 10424 10421 10418 10414 10411 10407 10405 10401 10396 10390 10384 10379 10374 10369 10364 10358 10352 10347 10340 10334 10328 10324 10320 10315 10309 10304 10299 10293 10287 10282 10276 10272 10268 10264 10260 10256 10251 10248 10246 10244 10242 10241 10239 10237 10235 10233 10232 10231 10231 10230 10231 10231 10232 10234 10235 10237 10239 10242 10244 10246 10249 10251 10254 10257 10260 10264 10268 10272 10277 10281 10286 10291 10297 10304 10311 10317 10324
10446 10442 10440 10437 10433 10431 10427 10424 10421 10418 10415 10411 10407 10402 10397 10394 10391 10388 10383 10377 10371 10366 10361 10354 10349 10343 10337 10331 10324 10318 10312 10308 10304 10299 10293 10287 10281 10274 10269 10263 10259 10254 10251 10246 10242 10237 10235 10232 10231 10228 10226 10225 10223 10221 10219 10218 10217 10217 10217 10217 10218 10219 10221 10222 10224 10226 10227 10230 10232 10235 10237 10240 10242 10246 10249 10253 10257 10262 10267 10272 10277 10282 10289 10296 10303 10309
10439 10436 10434 10431 10427 10424 10421 10417 10414 10410 10407 10404 10399 10395 10390 10385 10381 10378 10374 10368 10363 10358 10353 10347 10340 10333 10327 10321 10314 10308 10302 10297 10292 10288 10282 10276 10269 10262 10256 10251 10246 10241 10238 10234 10229 10224 10222 10220 10217 10215 10212 10211 10209 10207 10206 10204 10204 10204 10204 10205 10206 10207 10208 10209 10211 10212 10214 10216 10218 10221 10223 10226 10229 10232 10235 10239 10243 10247 10252 10257 10262 10268 10274 10281 10289 10296
10432 10430 10427 10424 10421 10417 10414 10411 10407 10403 10399 10396 10392 10387 10382 10377 10373 10369 10364 10359 10354 10349 10345 10339 10332 10325 10317 10311 10304 10297 10291 10286 10281 10277 10272 10265 10257 10251 10244 10239 10233 10229 10226 10222 10216 10211 10209 10207 10204 10201 10199 10197 10195 10193 10192 10191 10191 10192 10192 10193 10194 10194 10196 10196 10197 10199 10200 10202 10204 10206 10209 10212 10215 10218 10221 10224 10229 10233 10237 10243 10249 10254 10260 10267 10274 10281
10426 10424 10421 10417 10414 10410 10407 10404 10400 10396 10391 10387 10384 10379 10374 10369 10364 10361 10356 10351 10345 10340 10336 10330 10324 10316 10309 10301 10294 10287 10280 10274 10269 10265 10261 10255 10247 10240 10234 10227 10222 10217 10214 10210 10205 10199 10196 10194 10191 10189 10186 10184 10182 10180 10179 10179 10179 10180 10181 10181 10181 10182 10182 10183 10184 10185 10187 10188 10191 10192 10195 10198 10201 10204 10207 10211 10215 10219 10224 10229 10235 10240 10246 10252 10260 10267
10421 10417 10414 10411 10407 10403 10400 10397 10393 10389 10384 10380 10376 10371 10367 10362 10356 10351 10347 10342 10337 10331 10326 10321 10315 10307 10299 10292 10284 10277 10271 10264 10257 10253 10250 10245 10237 10230 10223 10217 10211 10206 10202 10199 10194 10189 10184 10182 10179 10176 10174 10171 10169 10168 10167 10167 10168 10168 10169 10169 10169 10169 10169 10170 10171 10172 10173 10175 10177 10179 10182 10185 10187 10191 10194 10197 10201 10205 10210 10215 10221 10227 10232 10239 10246 10253
10414 10412 10408 10405 10401 10397 10393 10389 10386 10382 10378 10373 10369 10364 10359 10354 10349 10344 10338 10333 10328 10322 10317 10312 10306 10299 10291 10282 10274 10267 10262 10256 10249 10243 10239 10235 10228 10221 10214 10207 10201 10196 10192 10188 10183 10178 10174 10171 10168 10165 10162 10161 10159 10158 10157 10157 10157 10157 10157 10157 10157 10157 10157 10157 10158 10159 10161 10162 10164 10166 10169 10172 10174 10177 10181 10184 10187 10192 10196 10201 10207 10213 10219 10225 10232 10239
10409 10406 10402 10399 10395 10391 10387 10383 10379 10374 10371 10366 10361 10356 10351 10346 10341 10336 10331 10325 10319 10314 10308 10302 10296 10289 10282 10274 10265 10257 10251 10246 10241 10235 10230 10226 10219 10212 10204 10197 10192 10187 10182 10177 10172 10167 10164 10161 10157 10155 10152 10151 10149 10148 10147 10147 10146 10146 10146 10146 10145 10145 10145 10145 10146 10146 10148 10149 10152 10154 10157 10159 10162 10165 10168 10171 10175 10179 10183 10188 10194 10199 10206 10212 10219 10226
10402 10399 10397 10393 10389 10385 10381 10377 10372 10368 10364 10359 10354 10349 10344 10338 10332 10327 10322 10316 10311 10305 10299 10292 10285 10277 10270 10262 10255 10247 10241 10236 10231 10226 10222 10217 10211 10202 10195 10188 10182 10177 10172 10168 10162 10158 10154 10151 10148 10146 10143 10141 10139 10138 10137 10137 10136 10136 10135 10134 10134 10134 10134 10134 10134 10135 10136 10137 10140 10142 10144 10147 10150 10152 10156 10160 10163 10167 10171 10176 10181 10187 10193 10199 10206 10213
10397 10393 10391 10387 10384 10379 10374 10370 10366 10362 10357 10352 10347 10342 10337 10331 10326 10319 10314 10308 10302 10296 10290 10283 10276 10267 10259 10251 10244 10237 10231 10226 10221 10216 10212 10207 10201 10194 10185 10178 10172 10168 10164 10158 10153 10149 10145 10142 10139 10136 10134 10132 10130 10129 10127 10127 10126 10126 10125 10124 10124 10124 10123 10123 10123 10124 10125 10127 10129 10131 10133 10136 10139 10142 10145 10148 10152 10156 10159 10164 10169 10175 10181 10187 10194 10201
10391 10387 10384 10382 10378 10374 10368 10363 10359 10355 10351 10346 10341 10335 10329 10324 10317 10312 10306 10301 10294 10287 10281 10273 10265 10257 10248 10240 10232 10225 10219 10214 10209 10206 10201 10197 10191 10184 10176 10169 10164 10159 10154 10149 10144 10140 10136 10133 10130 10127 10124 10122 10121 10119 10119 10117 10117 10116 10116 10115 10114 10114 10114 10113 10113 10114 10115 10116 10118 10121 10123 10126 10128 10131 10134 10137 10141 10145 10148 10152 10158 10164 10169 10176 10182 10189
10386 10381 10377 10374 10371 10367 10362 10357 10352 10348 10344 10339 10333 10327 10321 10315 10309 10303 10297 10291 10285 10278 10271 10263 10255 10246 10238 10229 10221 10214 10207 10202 10199 10194 10191 10186 10180 10173 10166 10160 10155 10150 10145 10140 10135 10131 10127 10124 10121 10117 10116 10113 10112 10111 10110 10109 10108 10107 10107 10106 10106 10105 10104 10104 10104 10104 10106 10107 10109 10111 10113 10116 10118 10121 10124 10127 10131 10134 10138 10142 10147 10152 10159 10165 10171 10178
10381 10376 10372 10368 10364 10361 10356 10351 10346 10341 10336 10331 10326 10320 10314 10307 10302 10295 10288 10282 10276 10269 10261 10254 10245 10237 10229 10221 10212 10204 10197 10192 10188 10184 10180 10175 10169 10162 10156 10151 10146 10141 10136 10131 10126 10122 10119 10116 10112 10109 10106 10105 10104 10102 10101 10101 10100 10099 10098 10097 10097 10096 10096 10095 10095 10096 10097 10098 10100 10102 10104 10106 10108 10111 10113 10116 10120 10124 10127 10132 10136 10142 10148 10154 10161 10167
10374 10370 10366 10362 10357 10353 10349 10344 10339 10334 10328 10323 10317 10311 10306 10299 10293 10287 10281 10274 10267 10260 10252 10244 10236 10227 10219 10210 10202 10194 10187 10183 10179 10174 10169 10164 10158 10152 10147 10142 10137 10132 10127 10122 10118 10114 10110 10107 10103 10101 10098 10097 10096 10094 10093 10092 10092 10091 10090 10089 10088 10087 10087 10086 10087 10087 10088 10089 10091 10093 10094 10096 10099 10101 10104 10107 10110 10114 10117 10122 10126 10132 10137 10144 10151 10157
10368 10364 10360 10356 10351 10346 10341 10336 10331 10326 10320 10314 10309 10302 10296 10290 10284 10277 10271 10264 10257 10250 10242 10234 10227 10218 10209 10201 10192 10184 10177 10173 10169 10164 10159 10154 10148 10143 10138 10133 10129 10124 10119 10114 10109 10106 10102 10099 10096 10092 10090 10089 10087 10086 10086 10085 10084 10083 10082 10081 10080 10079 10079 10079 10079 10079 10081 10082 10083 10084 10086 10087 10090 10092 10095 10097 10101 10104 10108 10112 10117 10122 10128 10134 10141 10147
10362 10357 10353 10349 10344 10339 10334 10328 10323 10317 10312 10306 10300 10294 10287 10281 10274 10267 10261 10254 10247 10239 10231 10224 10216 10209 10201 10192 10184 10176 10169 10164 10160 10156 10150 10144 10139 10134 10129 10125 10121 10116 10111 10106 10102 10097 10094 10091 10088 10085 10083 10081 10080 10079 10078 10077 10077 10076 10075 10074 10072 10072 10071 10071 10071 10072 10073 10074 10075 10076 10078 10080 10082 10084 10086 10089 10092 10096 10099 10103 10108 10113 10119 10125 10131 10137
10355 10351 10346 10341 10336 10331 10326 10320 10314 10309 10302 10297 10291 10284 10278 10271 10264 10257 10251 10244 10236 10229 10221 10214 10207 10199 10191 10184 10176 10168 10161 10156 10151 10146 10141 10136 10130 10125 10120 10116 10112 10108 10104 10099 10094 10090 10086 10083 10081 10078 10076 10074 10072 10072 10071 10071 10069 10069 10067 10066 10065 10064 10064 10064 10065 10065 10066 10067 10068 10069 10071 10072 10074 10076 10079 10081 10084 10087 10091 10095 10099 10104 10110 10116 10122 10129
10348 10344 10339 10334 10329 10324 10318 10312 10306 10301 10294 10287 10281 10275 10268 10262 10254 10247 10240 10233 10226 10219 10212 10206 10199 10191 10184 10176 10168 10161 10153 10147 10142 10137 10133 10127 10122 10117 10112 10108 10104 10101 10097 10092 10087 10082 10079 10076 10074 10072 10069 10067 10066 10065 10064 10064 10062 10061 10061 10059 10059 10058 10058 10058 10058 10059 10059 10060 10061 10062 10063 10065 10067 10069 10071 10074 10076 10080 10083 10087 10092 10096 10102 10107 10114 10120
10341 10337 10332 10327 10322 10317 10311 10305 10299 10292 10286 10279 10272 10265 10258 10252 10245 10238 10231 10224 10217 10210 10203 10196 10190 10183 10176 10169 10161 10154 10147 10141 10135 10130 10125 10119 10114 10109 10105 10101 10097 10094 10090 10086 10081 10076 10071 10068 10066 10065 10063 10062 10060 10059 10058 10057 10056 10055 10054 10052 10052 10051 10052 10052 10052 10052 10052 10053 10054 10055 10056 10058 10060 10062 10064 10067 10069 10072 10076 10080 10084 10089 10094 10099 10106 10112
10334 10329 10325 10320 10315 10309 10304 10297 10291 10284 10277 10271 10263 10256 10249 10242 10236 10229 10222 10216 10209 10202 10195 10188 10181 10174 10167 10161 10153 10146 10140 10134 10129 10123 10117 10112 10106 10102 10097 10093 10090 10087 10084 10079 10075 10071 10066 10062 10059 10057 10056 10055 10054 10053 10052 10051 10050 10049 10047 10046 10046 10045 10046 10046 10046 10046 10046 10047 10047 10049 10050 10051 10053 10056 10057 10060 10063 10066 10069 10073 10077 10081 10086 10092 10098 10104
10327 10322 10317 10312 10307 10302 10296 10290 10284 10277 10269 10262 10255 10247 10240 10233 10226 10220 10214 10207 10201 10194 10187 10181 10174 10167 10161 10153 10146 10138 10132 10126 10121 10116 10111 10105 10099 10095 10091 10086 10082 10079 10077 10074 10070 10066 10061 10056 10052 10050 10049 10048 10048 10047 10047 10046 10044 10043 10041 10040 10039 10039 10039 10040 10041 10041 10041 10041 10041 10042 10044 10045 10047 10049 10051 10054 10057 10060 10063 10066 10070 10074 10079 10085 10091 10096
10322 10317 10312 10307 10301 10295 10289 10282 10276 10269 10261 10254 10247 10239 10232 10225 10219 10212 10206 10199 10193 10186 10179 10173 10167 10161 10154 10147 10140 10132 10126 10119 10114 10109 10104 10099 10093 10088 10084 10080 10076 10072 10070 10067 10064 10061 10056 10052 10047 10044 10042 10041 10041 10041 10041 10040 10039 10037 10036 10034 10033 10033 10033 10034 10034 10035 10035 10035 10036 10036 10037 10039 10041 10043 10046 10048 10051 10054 10057 10060 10064 10067 10072 10078 10083 10089
10317 10312 10306 10301 10295 10289 10282 10276 10269 10262 10254 10247 10239 10232 10225 10217 10211 10204 10198 10192 10186 10179 10172 10166 10159 10153 10147 10141 10134 10127 10121 10114 10109 10103 10098 10093 10087 10082 10078 10074 10071 10067 10063 10061 10057 10054 10051 10047 10044 10040 10037 10036 10034 10034 10034 10034 10033 10032 10030 10029 10028 10027 10028 10028 10029 10029 10029 10029 10030 10031 10032 10034 10036 10037 10040 10042 10046 10048 10051 10054 10057 10061 10066 10071 10076 10082
10312 10306 10301 10295 10289 10282 10276 10269 10262 10256 10248 10241 10234 10226 10218 10211 10204 10197 10191 10184 10178 10172 10166 10159 10153 10147 10140 10134 10127 10120 10114 10108 10102 10097 10092 10087 10082 10077 10072 10069 10065 10061 10058 10054 10051 10048 10046 10042 10039 10036 10033 10031 10029 10029 10028 10028 10027 10026 10025 10024 10023 10022 10022 10023 10023 10024 10024 10024 10025 10026 10027 10029 10031 10032 10035 10037 10040 10042 10046 10048 10052 10056 10061 10066 10070 10076
10306 10301 10295 10289 10282 10276 10269 10262 10256 10249 10242 10235 10227 10220 10212 10205 10197 10191 10184 10177 10171 10165 10159 10152 10147 10141 10135 10128 10121 10114 10107 10101 10096 10091 10086 10081 10076 10071 10067 10063 10060 10056 10052 10049 10046 10042 10039 10037 10034 10031 10029 10027 10025 10024 10023 10022 10022 10021 10019 10019 10018 10017 10017 10017 10018 10018 10019 10019 10019 10021 10022 10023 10026 10027 10030 10032 10035 10037 10040 10043 10046 10050 10054 10059 10064 10069
10301 10294 10289 10283 10277 10270 10263 10257 10250 10243 10236 10229 10222 10214 10207 10199 10192 10184 10177 10171 10164 10158 10151 10145 10140 10134 10129 10123 10116 10109 10102 10096 10091 10086 10081 10076 10071 10066 10062 10058 10055 10051 10048 10044 10041 10038 10034 10031 10029 10026 10024 10022 10021 10019 10018 10017 10016 10016 10014 10014 10013 10013 10013 10013 10013 10013 10014 10014 10015 10016 10017 10019 10021 10022 10025 10027 10030 10032 10034 10037 10041 10044 10049 10054 10059 10064
10295 10289 10284 10278 10272 10266 10259 10252 10245 10238 10231 10224 10216 10209 10201 10193 10186 10178 10171 10164 10158 10151 10144 10138 10132 10127 10122 10117 10111 10105 10099 10092 10086 10081 10076 10071 10066 10062 10057 10053 10049 10047 10044 10040 10037 10033 10030 10027 10024 10021 10019 10017 10016 10014 10014 10012 10011 10010 10009 10009 10009 10008 10008 10008 10008 10009 10009 10009 10011 10011 10012 10014 10016 10018 10020 10022 10024 10027 10029 10032 10036 10039 10044 10049 10053 10058
10290 10284 10278 10272 10266 10260 10254 10247 10240 10234 10227 10219 10212 10204 10196 10189 10181 10174 10166 10159 10152 10145 10138 10131 10125 10119 10115 10110 10105 10099 10094 10087 10082 10077 10071 10066 10062 10057 10052 10048 10045 10042 10039 10036 10032 10029 10026 10023 10020 10017 10014 10013 10011 10011 10009 10008 10007 10006 10004 10004 10004 10004 10004 10004 10004 10004 10004 10005 10006 10007 10008 10010 10011 10013 10016 10017 10019 10022 10024 10027 10031 10035 10039 10044 10049 10053
10284 10279 10273 10267 10261 10256 10249 10242 10236 10229 10222 10215 10208 10201 10193 10185 10177 10169 10162 10155 10148 10141 10133 10126 10120 10114 10109 10103 10099 10094 10088 10082 10077 10072 10067 10062 10057 10052 10048 10044 10040 10036 10034 10031 10028 10026 10022 10019 10016 10013 10011 10009 10007 10006 10005 10004 10002 10001 10000 10000 9999 9999 9999 9999 9999 9999 10000 10001 10002 10002 10004 10006 10007 10009 10011 10013 10015 10017 10019 10023 10027 10031 10035 10039 10044 10047
10279 10274 10268 10262 10257 10251 10245 10238 10232 10225 10218 10211 10204 10197 10189 10181 10173 10165 10157 10151 10144 10137 10129 10122 10115 10109 10103 10098 10093 10088 10083 10077 10072 10067 10062 10057 10053 10049 10044 10039 10036 10032 10029 10026 10023 10021 10018 10016 10012 10010 10007 10005 10003 10002 10001 9999 9999 9997 9996 9996 9995 9995 9995 9995 9995 9995 9996 9996 9997 9999 10000 10001 10003 10005 10007 10009 10011 10013 10016 10020 10024 10027 10031 10035 10039 10043
10274 10269 10263 10257 10252 10246 10240 10234 10227 10221 10214 10207 10200 10192 10184 10177 10168 10161 10152 10146 10139 10132 10125 10118 10111 10104 10097 10092 10087 10083 10078 10073 10068 10063 10058 10054 10049 10044 10041 10036 10032 10028 10024 10021 10018 10016 10014 10012 10009 10007 10004 10002 9999 9998 9997 9996 9994 9994 9992 9992 9991 9991 9991 9991 9991 9991 9992 9992 9994 9994 9996 9997 9999 10001 10003 10005 10007 10010 10013 10016 10020 10024 10027 10031 10036 10040
10269 10264 10258 10252 10247 10241 10235 10229 10222 10216 10209 10202 10196 10188 10181 10172 10164 10157 10149 10142 10134 10127 10121 10114 10107 10099 10092 10086 10081 10077 10072 10069 10064 10059 10054 10050 10046 10041 10037 10033 10029 10025 10021 10017 10014 10011 10009 10007 10005 10003 10001 9999 9996 9994 9993 9992 9991 9990 9989 9988 9987 9987 9987 9987 9987 9987 9988 9989 9990 9991 9992 9994 9996 9997 9999 10001 10004 10006 10009 10012 10016 10020 10024 10027 10032 10036
10264 10259 10254 10248 10242 10237 10231 10224 10218 10211 10204 10197 10190 10182 10176 10168 10161 10153 10146 10139 10132 10124 10117 10111 10104 10097 10090 10082 10076 10071 10067 10063 10059 10055 10051 10046 10042 10038 10034 10030 10026 10022 10018 10014 10011 10007 10005 10002 10001 9999 9997 9996 9993 9991 9989 9988 9987 9986 9986 9985 9984 9984 9984 9983 9984 9984 9985 9986 9987 9987 9989 9991 9992 9994 9996 9998 10001 10003 10006 10009 10012 10016 10020 10024 10028 10032
10260 10254 10249 10244 10238 10232 10226 10219 10212 10206 10199 10192 10185 10177 10171 10164 10156 10149 10142 10135 10128 10121 10115 10108 10101 10094 10087 10081 10074 10067 10062 10057 10054 10051 10047 10043 10039 10035 10031 10027 10024 10020 10016 10012 10008 10004 10001 9999 9997 9995 9994 9992 9991 9988 9986 9985 9984 9983 9982 9982 9981 9981 9981 9981 9981 9981 9982 9982 9984 9985 9986 9987 9989 9991 9993 9995 9997 10000 10003 10006 10009 10012 10016 10021 10024 10029
10256 10250 10244 10239 10233 10227 10220 10214 10207 10201 10194 10187 10181 10173 10166 10159 10152 10145 10138 10131 10124 10117 10111 10104 10098 10091 10084 10078 10072 10065 10059 10053 10049 10045 10042 10039 10036 10032 10028 10024 10021 10017 10014 10011 10007 10003 9999 9996 9994 9992 9991 9989 9987 9986 9984 9982 9981 9980 9979 9979 9978 9977 9977 9977 9978 9978 9979 9980 9981 9982 9983 9984 9986 9988 9990 9992 9994 9997 10000 10002 10006 10009 10012 10016 10021 10024
10251 10245 10239 10233 10227 10221 10215 10209 10202 10196 10189 10182 10176 10169 10162 10155 10148 10141 10134 10127 10121 10114 10107 10101 10095 10089 10082 10076 10070 10063 10057 10051 10046 10041 10037 10033 10030 10027 10024 10021 10018 10015 10012 10008 10005 10001 9997 9994 9991 9989 9987 9986 9984 9982 9981 9979 9978 9977 9976 9976 9976 9975 9975 9975 9975 9976 9976 9977 9978 9979 9981 9982 9984 9986 9987 9989 9992 9994 9997 9999 10002 10005 10009 10012 10016 10019
10246 10240 10234 10228 10222 10216 10210 10204 10197 10191 10184 10177 10171 10164 10157 10151 10144 10137 10130 10124 10117 10111 10104 10098 10092 10086 10081 10074 10068 10062 10056 10049 10043 10037 10033 10029 10025 10022 10019 10016 10014 10011 10008 10006 10002 9999 9996 9992 9989 9987 9984 9982 9981 9979 9978 9977 9976 9974 9974 9973 9972 9972 9972 9972 9972 9973 9974 9974 9976 9976 9977 9979 9981 9982 9985 9987 9989 9991 9994 9996 9999 10002 10005 10008 10011 10015
10241 10235 10229 10223 10217 10211 10205 10199 10193 10187 10181 10174 10167 10160 10153 10147 10140 10133 10126 10120 10114 10107 10101 10095 10089 10083 10077 10072 10066 10060 10054 10048 10042 10036 10031 10026 10022 10018 10014 10011 10009 10006 10004 10002 9999 9997 9994 9991 9987 9984 9982 9981 9979 9977 9976 9974 9973 9972 9971 9971 9970 9970 9969 9969 9970 9970 9971 9972 9972 9974 9975 9977 9978 9980 9982 9984 9986 9988 9991 9993 9996 9998 10001 10004 10007 10011
10236 10230 10224 10219 10212 10207 10201 10195 10189 10183 10176 10170 10163 10156 10149 10142 10137 10130 10123 10117 10110 10104 10097 10092 10086 10080 10074 10069 10063 10058 10052 10047 10041 10036 10031 10026 10021 10016 10012 10008 10005 10002 9999 9997 9996 9993 9991 9988 9986 9982 9980 9978 9976 9974 9973 9972 9971 9970 9969 9968 9967 9967 9967 9967 9967 9967 9968 9969 9970 9971 9972 9974 9976 9978 9980 9982 9984 9986 9987 9990 9992 9995 9998 10001 10004 10007
10231 10226 10220 10214 10209 10203 10197 10191 10185 10179 10173 10166 10159 10152 10146 10139 10132 10126 10120 10114 10107 10101 10095 10089 10083 10077 10071 10066 10061 10056 10050 10044 10039 10034 10029 10025 10020 10016 10011 10007 10003 9999 9996 9994 9991 9989 9987 9986 9983 9981 9978 9976 9974 9972 9971 9970 9969 9967 9967 9966 9966 9965 9965 9965 9965 9966 9966 9967 9967 9969 9970 9972 9973 9975 9977 9979 9981 9983 9985 9987 9990 9992 9995 9998 10001 10004
10226 10221 10216 10211 10205 10199 10193 10187 10182 10176 10169 10163 10157 10150 10143 10136 10129 10123 10117 10110 10104 10097 10091 10086 10080 10074 10069 10064 10058 10053 10048 10043 10037 10032 10028 10024 10019 10014 10010 10006 10002 9998 9994 9991 9989 9986 9984 9982 9981 9978 9976 9974 9972 9971 9969 9968 9967 9966 9965 9964 9963 9963 9962 9962 9963 9963 9964 9964 9965 9966 9967 9969 9971 9972 9974 9977 9979 9981 9982 9985 9987 9989 9992 9995 9998 10001